Regional Weather Roundup
Issued by NWS Newport/Morehead, NC

Current Version | Previous Version | Text Only | Print | Product List | Glossary On
Versions: 1 2 3 4 5 6 7 8 9 10 11 12 13 14 15 16 17 18 19 20 21 22 23 24 25 26 27 28 29 30 31 32 33 34 35 36 37 38 39 40 41 42 43 44 45 46 47 48 49 50
000
ASUS42 KMHX 230022
RWRMHX
WEATHER ROUNDUP FOR EASTERN NORTH CAROLINA
NATIONAL WEATHER SERVICE NEWPORT/MOREHEAD CITY NC
800 PM EDT TUE JUL 22 2014

NOTE: "FAIR" INDICATES FEW OR NO CLOUDS BELOW 12,000 FEET
WITH NO SIGNIFICANT WEATHER AND/OR OBSTRUCTIONS TO VISIBILITY

NCZ015>017-031-032-045>047-102-103-230100-
NORTH COAST

CITY           SKY/WX    TMP DP  RH WIND       PRES   REMARKS
EDENTON        RAIN      78  75  92 SE3       30.10S
ELIZABETH CITY MOCLDY    78  73  84 S6        30.10F
KITTY HAWK     MOCLDY    77  75  93 CALM      30.09S
MANTEO         NOT AVBL

$$

NCZ045>047-081-094-103-104-230100-
CENTRAL COAST

CITY           SKY/WX    TMP DP  RH WIND       PRES   REMARKS
FRISCO         MOCLDY    79  75  87 SW9       30.12S
SWANQUARTER      N/A     79 N/A N/A S5G10     30.06S

$$

NCZ095-097-098-100-101-230100-
SOUTHERN COAST

CITY           SKY/WX    TMP DP  RH WIND       PRES   REMARKS
BEAUFORT       CLOUDY    80  75  84 S12       30.09S
CEDAR ISLAND     N/A     77 N/A N/A SE12      30.15S
JACKSONVILLE   CLOUDY    78  76  93 S5        30.08S
NEWPORT        NOT AVBL
PINEY ISLAND   LGT RAIN  77  76  96 S8        30.09F FOG
WILMINGTON     CLOUDY    80  76  87 S5        30.08R


$$

NCZ011>013-027>030-043-044-078>080-089-090>093-098-230100-
COASTAL PLAIN

CITY           SKY/WX    TMP DP  RH WIND       PRES   REMARKS
AHOSKIE        PTCLDY    75  73  91 CALM      30.10S
CLINTON        MOCLDY    81  76  85 CALM      30.08S
ELIZABETHTOWN  MOCLDY    80  74  82 CALM      30.07F
GOLDSBORO      LGT RAIN  77  77 100 NE2       30.07S
GREENVILLE     MOCLDY    79  73  83 CALM      30.10S
HAVELOCK       CLOUDY    77  75  93 CALM      30.10S
KENANSVILLE    MOCLDY    77  74  92 CALM      30.09R
KINSTON        CLOUDY    77  75  94 NE3       30.10R
NEW BERN       MOCLDY    79  74  84 CALM      30.10S
RICHLANDS      CLOUDY    79  73  83 CALM      30.09R
ROANOKE RAPIDS NOT AVBL
ROCKY MOUNT    PTCLDY    78  72  81 E3        30.09S
WASHINGTON     MOCLDY    77  74  91 E6        30.10S
WHITEVILLE     MOCLDY    78  74  87 CALM      30.08R

$$

AMZ130-135-150-152-154-156-158-170-250-252-270-ANZ085-086-088-633-658-670-230100-
MARINE OBSERVATIONS

STATION/POSITION TIME  TEMP    WIND        PRES    WAVE   SWELL
                       AIR SEA DIR/SP/G            HT/PER HT/PER
                 (UTC) (F)     (DEG/KT/KT) (MB)    (FT/S) (FT/S)
CHESAPEAKE LIGHT NOT AVBL
BUOY 44014       0000   76 78  150/  6/  6 1019.3    2/ 7   2/ 7
DUCK             0000   77 73  140/  6/  7 1018.5
2E DUCK          0000                        N/A     2/ 6
OREGON INLET     0000   78 79  190/  9/ 11 1019.5
BUOY 44095       0000      78                N/A     3/ 6
20E OREGON INLET 2300          190/ 12/ 14   N/A
HATTERAS CG      0000   78 82  190/  6/ 10 1020.0
DIAMOND BUOY     0000          VRB 17/ 19  1019.5    4/ 7   3/ 7
CAPE LOOKOUT     0000   79     190/ 18/ 20 1018.9
BEAUFORT LAB     0000   80 80  190/ 16/ 19 1018.5
30 SE NEW RIVER  0000   79 81  190/ 16/ 17 1019.1    4/ 5   2/ 8
5 SE WRIGHTSVILL 0000   76 81  190/ 14/ 16   N/A
BUOY 41002       NOT AVBL
BUOY 41004       0000   80 82  140/ 14/ 16 1018.2    3/ 8   2/ 8

$$



USA.gov is the U.S. government's official web portal to all federal, state and local government web resources and services.